| time (UTC) | temp C | wind direction | speed KPH | gust KPH | rain 1hr cm | rain 24hr cm | rain mn cm | humidity % | barometer mb |
| 20260901170108 | 16 | 216 | 1.6 | 6.4 | 0.00 | 0.00 | 0.00 | ||
| 20260901160101 | 16 | 265 | 1.6 | 4.8 | 0.00 | 0.00 | 0.00 | ||
| 20260901153040 | 16 | 217 | 0.0 | 8.0 | 0.00 | 0.00 | 0.00 | ||
| 20260901150111 | 16 | 171 | 0.0 | 3.2 | 0.00 | 0.00 | 0.00 | ||
| 20260901143047 | 15 | 232 | 0.0 | 6.4 | 0.00 | 0.00 | 0.00 | ||
| 20260901133039 | 15 | 258 | 3.2 | 8.0 | 0.00 | 0.00 | 0.00 | ||
| 20260901130111 | 15 | 234 | 0.0 | 6.4 | 0.00 | 0.00 | 0.00 | ||
| 20260901120104 | 15 | 250 | 0.0 | 8.0 | 0.00 | 0.00 | 0.00 | ||
| 20260901110055 | 15 | 261 | 1.6 | 8.0 | 0.00 | 0.00 | 0.00 | ||
| 20260901103035 | 15 | 271 | 1.6 | 8.0 | 0.00 | 0.00 | 0.00 | ||
| 20260901093044 | 15 | 235 | 0.0 | 4.8 | 0.00 | 0.00 | 0.00 | ||
| 20260901083038 | 15 | 224 | 0.0 | 4.8 | 0.00 | 0.00 | 0.00 | ||
| 20260901073032 | 15 | 216 | 1.6 | 4.8 | 0.00 | 0.00 | 0.00 | ||
| 20260901070104 | 15 | 202 | 1.6 | 3.2 | 0.00 | 0.00 | 0.00 | ||
| 20260901063041 | 15 | 237 | 1.6 | 6.4 | 0.00 | 0.00 | 0.00 | ||
| 20260901060108 | 15 | 271 | 1.6 | 8.0 | 0.00 | 0.00 | 0.00 | ||
| 20260901053046 | 16 | 234 | 0.0 | 3.2 | 0.00 | 0.00 | 0.00 | ||
| 20260901050056 | 16 | 205 | 0.0 | 1.6 | 0.00 | 0.00 | 0.00 | ||
| 20260901043037 | 16 | 257 | 0.0 | 0.0 | 0.00 | 0.00 | 0.00 | ||
| 20260901040110 | 17 | 263 | 0.0 | 1.6 | 0.00 | 0.00 | 0.00 | ||
| 20260901033050 | 17 | 248 | 0.0 | 3.2 | 0.00 | 0.00 | 0.00 | ||
| 20260901030058 | 18 | 257 | 0.0 | 3.2 | 0.00 | 0.00 | 0.00 | ||
| 20260901023038 | 19 | 221 | 0.0 | 3.2 | 0.00 | 0.00 | 0.00 | ||
| 20260901020110 | 20 | 237 | 1.6 | 6.4 | 0.00 | 0.00 | 0.00 | ||
| 20260901013029 | 21 | 195 | 3.2 | 8.0 | 0.00 | 0.00 | 0.00 | ||
| 20260901003049 | 22 | 233 | 3.2 | 6.4 | 0.00 | 0.00 | 0.00 | ||
| 20260901000103 | 23 | 14 | 1.6 | 8.0 | 0.00 | 0.00 | 0.00 | ||
| 20260831233022 | 24 | 96 | 0.0 | 8.0 | 0.00 | 0.00 | 0.00 | ||
| 20260831230046 | 24 | 137 | 1.6 | 11.3 | 0.00 | 0.00 | 0.00 | ||
| 20260831220107 | 24 | 242 | 3.2 | 11.3 | 0.00 | 0.00 | 0.00 | ||
| 20260831213046 | 23 | 153 | 3.2 | 11.3 | 0.00 | 0.00 | 0.00 | ||
| 20260831210055 | 23 | 192 | 3.2 | 9.7 | 0.00 | 0.00 | 0.00 | ||
| 20260831203037 | 22 | 173 | 3.2 | 11.3 | 0.00 | 0.00 | 0.00 | ||
| 20260831200104 | 22 | 350 | 1.6 | 11.3 | 0.00 | 0.00 | 0.00 | ||
| 20260831193023 | 21 | 99 | 0.0 | 8.0 | 0.00 | 0.00 | 0.00 | ||
| 20260831190107 | 21 | 69 | 3.2 | 12.9 | 0.00 | 0.00 | 0.00 | ||
| 20260831183028 | 20 | 63 | 4.8 | 12.9 | 0.00 | 0.00 | 0.00 | ||
| 20260831180052 | 19 | 55 | 4.8 | 14.5 | 0.00 | 0.00 | 0.00 |